R1ZAA-14 Weather Reports


time (UTC)temp
C
wind
direction
speed
KPH
gust
KPH
rain 1hr
cm
rain 24hr
cm
rain mn
cm
humidity
%
barometer
mb
20260507113909 7 0.0 0.0 0.00 0.00 0.00 999.9
20260507112907 11 0.0 0.0 0.00 0.00 0.00 999.8
20260507111905 10 0.0 0.0 0.00 0.00 0.00 999.7
20260507105900 7 0.0 0.0 0.00 0.00 0.00 999.4
20260507104858 5 0.0 0.0 0.00 0.00 0.00 999.5
20260507103856 6 0.0 0.0 0.00 0.00 0.00 999.4
20260507102854 6 0.0 0.0 0.00 0.00 0.00 999.4
20260507101852 5 0.0 0.0 0.00 0.00 0.00 999.3
20260507100849 10 0.0 0.0 0.00 0.00 0.00 999.2
20260507095847 10 0.0 0.0 0.00 0.00 0.00 999.1
20260507094845 6 0.0 0.0 0.00 0.00 0.00 999.0
20260507093843 5 0.0 0.0 0.00 0.00 0.00 999.0
20260507092841 5 0.0 0.0 0.00 0.00 0.00 999.0
20260507091838 4 0.0 0.0 0.00 0.00 0.00 999.0
20260507090836 3 0.0 0.0 0.00 0.00 0.00 998.9
20260507085834 5 0.0 0.0 0.00 0.00 0.00 998.9
20260507084832 5 0.0 0.0 0.00 0.00 0.00 998.8
20260507083829 4 0.0 0.0 0.00 0.00 0.00 998.7
20260507082827 3 0.0 0.0 0.00 0.00 0.00 998.8
20260507081825 4 0.0 0.0 0.00 0.00 0.00 998.8
20260507080823 3 0.0 0.0 0.00 0.00 0.00 998.7
20260507075821 3 0.0 0.0 0.00 0.00 0.00 998.6
20260507074818 3 0.0 0.0 0.00 0.00 0.00 998.6
20260507073816 4 0.0 0.0 0.00 0.00 0.00 998.4
20260507072814 3 0.0 0.0 0.00 0.00 0.00 998.4
20260507071812 3 0.0 0.0 0.00 0.00 0.00 998.4
20260507070810 3 0.0 0.0 0.00 0.00 0.00 998.3
20260507065808 3 0.0 0.0 0.00 0.00 0.00 998.2
20260507064805 3 0.0 0.0 0.00 0.00 0.00 998.2
20260507063803 3 0.0 0.0 0.00 0.00 0.00 998.2
20260507062801 2 0.0 0.0 0.00 0.00 0.00 998.1
20260507061759 2 0.0 0.0 0.00 0.00 0.00 998.1
20260507060757 2 0.0 0.0 0.00 0.00 0.00 998.0
20260507055755 2 0.0 0.0 0.00 0.00 0.00 997.9
20260507054752 2 0.0 0.0 0.00 0.00 0.00 997.9
20260507053750 2 0.0 0.0 0.00 0.00 0.00 997.8
20260507052748 2 0.0 0.0 0.00 0.00 0.00 997.8
20260507051746 2 0.0 0.0 0.00 0.00 0.00 997.7
20260507050743 2 0.0 0.0 0.00 0.00 0.00 997.6
20260507045741 2 0.0 0.0 0.00 0.00 0.00 997.6
20260507044739 2 0.0 0.0 0.00 0.00 0.00 997.6
20260507043737 2 0.0 0.0 0.00 0.00 0.00 997.6
20260507042735 2 0.0 0.0 0.00 0.00 0.00 997.5
20260507041732 1 0.0 0.0 0.00 0.00 0.00 997.5
20260507040730 1 0.0 0.0 0.00 0.00 0.00 997.5
20260507035728 1 0.0 0.0 0.00 0.00 0.00 997.4
20260507034726 1 0.0 0.0 0.00 0.00 0.00 997.4
20260507033724 1 0.0 0.0 0.00 0.00 0.00 997.3
20260507032721 1 0.0 0.0 0.00 0.00 0.00 997.3
20260507031719 1 0.0 0.0 0.00 0.00 0.00 997.3
20260507030717 1 0.0 0.0 0.00 0.00 0.00 997.1
20260507025715 0 0.0 0.0 0.00 0.00 0.00 997.1
20260507024713 1 0.0 0.0 0.00 0.00 0.00 997.0
20260507023710 1 0.0 0.0 0.00 0.00 0.00 996.9
20260507022708 0 0.0 0.0 0.00 0.00 0.00 997.0
20260507021706 0 0.0 0.0 0.00 0.00 0.00 997.0
20260507020704 0 0.0 0.0 0.00 0.00 0.00 996.8
20260507015701 0 0.0 0.0 0.00 0.00 0.00 996.8
20260507014659 0 0.0 0.0 0.00 0.00 0.00 996.8
20260507013657 0 0.0 0.0 0.00 0.00 0.00 996.7
20260507012655 0 0.0 0.0 0.00 0.00 0.00 996.7
20260507011652 0 0.0 0.0 0.00 0.00 0.00 996.7
20260507010650 0 0.0 0.0 0.00 0.00 0.00 996.7
20260507005648 0 0.0 0.0 0.00 0.00 0.00 996.6
20260507004646 0 0.0 0.0 0.00 0.00 0.00 996.6
20260507003643 0 0.0 0.0 0.00 0.00 0.00 996.7
20260507002640 0 0.0 0.0 0.00 0.00 0.00 996.5
20260507001638 0 0.0 0.0 0.00 0.00 0.00 996.4
20260507000636 0 0.0 0.0 0.00 0.00 0.00 996.4
20260506235634 0 0.0 0.0 0.00 0.00 0.00 996.3
20260506234632 1 0.0 0.0 0.00 0.00 0.00 996.2
20260506233630 1 0.0 0.0 0.00 0.00 0.00 996.1
20260506232627 1 0.0 0.0 0.00 0.00 0.00 996.1
20260506231625 1 0.0 0.0 0.00 0.00 0.00 996.1
20260506230623 1 0.0 0.0 0.00 0.00 0.00 996.0
20260506225621 1 0.0 0.0 0.00 0.00 0.00 996.0
20260506224619 1 0.0 0.0 0.00 0.00 0.00 995.9
20260506223616 1 0.0 0.0 0.00 0.00 0.00 995.9
20260506222614 1 0.0 0.0 0.00 0.00 0.00 995.8
20260506221612 1 0.0 0.0 0.00 0.00 0.00 995.7
20260506215602 2 0.0 0.0 0.00 0.00 0.00 995.7
20260506214600 1 0.0 0.0 0.00 0.00 0.00 995.6
20260506213557 1 0.0 0.0 0.00 0.00 0.00 995.6
20260506212555 1 0.0 0.0 0.00 0.00 0.00 995.5
20260506211553 1 0.0 0.0 0.00 0.00 0.00 995.4
20260506210551 1 0.0 0.0 0.00 0.00 0.00 995.3
20260506205549 2 0.0 0.0 0.00 0.00 0.00 995.2
20260506204546 2 0.0 0.0 0.00 0.00 0.00 995.2
20260506203544 2 0.0 0.0 0.00 0.00 0.00 995.1
20260506202542 2 0.0 0.0 0.00 0.00 0.00 995.0
20260506201539 2 0.0 0.0 0.00 0.00 0.00 995.0
20260506200537 2 0.0 0.0 0.00 0.00 0.00 994.9
20260506195535 2 0.0 0.0 0.00 0.00 0.00 994.9
20260506194533 2 0.0 0.0 0.00 0.00 0.00 994.8
20260506193530 2 0.0 0.0 0.00 0.00 0.00 994.7
20260506192528 2 0.0 0.0 0.00 0.00 0.00 994.6
20260506191526 3 0.0 0.0 0.00 0.00 0.00 994.6
20260506190524 3 0.0 0.0 0.00 0.00 0.00 994.5
20260506185522 4 0.0 0.0 0.00 0.00 0.00 994.4
20260506184519 5 0.0 0.0 0.00 0.00 0.00 994.3
20260506183517 5 0.0 0.0 0.00 0.00 0.00 994.2
20260506182515 4 0.0 0.0 0.00 0.00 0.00 994.3
20260506181513 5 0.0 0.0 0.00 0.00 0.00 994.1
20260506180510 5 0.0 0.0 0.00 0.00 0.00 994.1
20260506175508 8 0.0 0.0 0.00 0.00 0.00 994.0
20260506174506 7 0.0 0.0 0.00 0.00 0.00 993.9
20260506173504 7 0.0 0.0 0.00 0.00 0.00 993.9
20260506172501 8 0.0 0.0 0.00 0.00 0.00 993.9
20260506171459 8 0.0 0.0 0.00 0.00 0.00 993.8
20260506170457 10 0.0 0.0 0.00 0.00 0.00 993.7
20260506165455 10 0.0 0.0 0.00 0.00 0.00 993.7
20260506164452 11 0.0 0.0 0.00 0.00 0.00 993.6
20260506163450 11 0.0 0.0 0.00 0.00 0.00 993.6
20260506162448 9 0.0 0.0 0.00 0.00 0.00 993.6
20260506161446 12 0.0 0.0 0.00 0.00 0.00 993.3
20260506160444 13 0.0 0.0 0.00 0.00 0.00 993.3
20260506155441 9 0.0 0.0 0.00 0.00 0.00 993.2
20260506154439 11 0.0 0.0 0.00 0.00 0.00 993.1
20260506153437 11 0.0 0.0 0.00 0.00 0.00 993.1
20260506152435 11 0.0 0.0 0.00 0.00 0.00 993.0
20260506151432 9 0.0 0.0 0.00 0.00 0.00 992.8
20260506150430 12 0.0 0.0 0.00 0.00 0.00 992.8
20260506145428 11 0.0 0.0 0.00 0.00 0.00 992.8
20260506144426 7 0.0 0.0 0.00 0.00 0.00 992.7
20260506143423 11 0.0 0.0 0.00 0.00 0.00 992.6
20260506142421 12 0.0 0.0 0.00 0.00 0.00 992.5
20260506141419 10 0.0 0.0 0.00 0.00 0.00 992.5
20260506140417 12 0.0 0.0 0.00 0.00 0.00 992.4
20260506135415 13 0.0 0.0 0.00 0.00 0.00 992.2
20260506134413 10 0.0 0.0 0.00 0.00 0.00 992.3
20260506133411 10 0.0 0.0 0.00 0.00 0.00 992.3
20260506132409 5 0.0 0.0 0.00 0.00 0.00 992.2
20260506131406 5 0.0 0.0 0.00 0.00 0.00 992.2
20260506130404 5 0.0 0.0 0.00 0.00 0.00 992.1
20260506125402 5 0.0 0.0 0.00 0.00 0.00 992.1
20260506124400 4 0.0 0.0 0.00 0.00 0.00 992.1
20260506123357 2 0.0 0.0 0.00 0.00 0.00 991.9
20260506122355 2 0.0 0.0 0.00 0.00 0.00 991.7
20260506121353 5 0.0 0.0 0.00 0.00 0.00 991.7
20260506120351 5 0.0 0.0 0.00 0.00 0.00 991.6
20260506115348 2 0.0 0.0 0.00 0.00 0.00 991.5